Location: West Cummington
(42.4920°N, 72.9680°W)
Time: 15:45:17
(UTC-04:00)

ATLAS 2AS CENTAUR R/B - Visible Passes

Search period start: 28 July 2015 00:00
Search period end: 07 August 2015 00:00
Orbit: 912 x 1300 km, 63.7° (Epoch: 29 June)

Date Brightness Start Highest point End Pass type
(mag) Time Alt. Az. Time Alt. Az. Time Alt. Az.
28 Jul 5.0 04:28:40 10° SSE 04:33:27 20° ESE 04:38:50 10° ENE visible
29 Jul 5.3 03:47:30 10° ESE 03:49:12 11° ESE 03:51:31 10° E visible
30 Jul 4.0 04:47:37 10° S 04:54:15 42° ESE 05:01:31 10° NE visible
31 Jul 4.6 04:04:07 10° SSE 04:09:49 27° ESE 04:16:07 10° NE visible
01 Aug 5.0 03:21:34 10° SE 03:25:30 16° ESE 03:30:01 10° ENE visible
01 Aug 3.1 05:08:07 10° SSW 05:15:23 81° ESE 05:23:21 10° NE visible
02 Aug 3.5 04:23:46 10° SSW 04:30:44 54° ESE 04:38:22 10° NE visible
03 Aug 4.1 03:40:33 13° S 03:46:13 35° ESE 03:53:10 10° NE visible
04 Aug 4.6 02:57:34 13° SSE 03:01:50 22° ESE 03:07:33 10° ENE visible
04 Aug 3.0 04:45:01 12° SW 04:52:01 82° NW 05:00:01 10° NE visible
05 Aug 4.9 02:14:54 10° SE 02:17:33 13° ESE 02:20:49 10° ENE visible
05 Aug 3.1 04:01:59 20° SSW 04:07:16 69° ESE 04:15:08 10° NE visible
06 Aug 3.6 03:18:54 26° S 03:22:40 46° ESE 03:30:05 10° NE visible
06 Aug 3.5 05:06:35 10° WSW 05:13:45 48° NW 05:21:25 10° NNE visible
